Wind_Speed
29 27 26 26 25 24 23 23 23 24 24 23 22 21 21 21 21 22 22 22 22 21 20 19 19 19 18 18 17 17 17 16 16 16 15 15 14 14 13 13 13 11 11 10 10 11 10 9 9 11 12 13 14 14 13 12 13 12 10 11 13 14 16 17 19 18 17 17 18 18 18 17 17 17 17 17 19 20 20 19 19 19 19 18 18
30 27 26 27 26 24 23 23 23 25 25 24 23 22 22 22 21 21 22 22 21 21 20 20 19 19 18 18 18 17 17 16 16 15 15 15 14 13 12 12 12 12 10 10 10 10 10 9 9 10 12 13 13 13 12 12 13 12 10 12 14 16 17 18 18 17 16 17 17 17 17 16 16 17 17 18 19 19 19 19 19 20 19 19 18
29 27 26 26 26 24 23 22 23 25 25 24 23 22 22 22 21 21 21 21 21 21 20 20 19 18 18 17 17 17 16 16 16 15 15 14 13 12 12 11 11 10 9 9 10 11 10 10 10 10 11 12 12 13 13 13 13 12 11 12 14 15 17 18 17 16 15 16 16 16 16 15 15 16 16 18 18 19 19 19 19 19 19 18 18
27 25 24 23 23 21 21 21 23 24 25 24 23 22 21 21 21 21 21 21 21 21 21 20 19 19 18 17 17 17 16 16 16 15 15 14 14 13 12 11 9 8 7 7 9 10 11 11 10 10 12 12 12 13 13 13 13 13 13 12 12 14 16 17 16 15 15 16 16 16 15 14 14 15 16 17 18 18 18 18 19 18 18 18 17
28 25 23 21 19 18 19 19 22 24 25 24 23 22 21 21 21 21 21 21 21 21 21 20 19 18 18 17 16 16 16 15 15 15 15 15 15 14 13 11 9 7 6 6 7 9 10 11 12 11 12 13 13 13 14 14 14 14 13 12 12 12 15 16 16 15 15 16 16 16 15 15 14 13 15 16 17 17 18 18 18 18 18 18 17
31 30 27 24 20 18 18 18 21 23 24 24 23 22 21 21 21 21 21 20 21 20 20 19 19 18 17 16 15 15 14 14 14 14 14 14 14 13 13 12 10 8 6 4 6 7 9 11 12 12 12 13 14 14 15 15 15 14 13 12 11 11 14 15 15 15 15 16 16 15 15 15 15 13 14 15 16 16 16 17 17 17 18 18 17
31 32 31 28 24 21 20 19 20 22 23 23 22 21 20 20 20 21 21 20 20 20 19 18 17 16 16 15 14 13 12 12 12 12 12 12 12 12 12 11 9 8 4 4 8 7 8 11 11 11 13 14 14 15 16 17 15 14 13 12 11 11 14 15 15 16 16 16 16 15 15 14 14 14 14 14 14 14 15 15 16 16 17 18 17
30 30 30 29 27 24 22 20 20 22 23 23 22 21 20 19 20 20 20 20 20 19 17 16 15 15 15 14 13 12 11 11 11 11 11 10 10 10 9 9 8 6 3 5 9 7 7 12 11 10 12 14 15 16 17 17 16 14 12 11 10 9 12 15 15 16 17 16 16 15 14 13 13 13 12 12 13 13 13 14 15 15 16 17 17
31 29 29 28 27 24 22 21 20 21 23 23 21 20 19 18 19 19 19 19 18 17 16 15 15 15 14 13 12 11 11 11 10 10 10 9 9 8 7 7 6 5 3 4 7 6 6 9 10 10 12 14 15 16 17 16 15 13 12 11 9 8 9 13 15 15 15 15 15 15 13 12 11 11 10 10 11 12 12 12 13 15 15 15 16
31 30 29 27 26 24 21 19 19 20 22 24 22 20 19 18 18 18 18 18 17 16 16 15 15 15 14 12 11 11 11 12 11 10 9 9 8 7 7 6 6 5 5 5 5 4 4 6 8 9 12 15 16 17 16 15 15 13 12 10 9 8 7 12 13 12 12 13 14 14 12 11 10 9 9 9 9 10 10 10 12 14 14 14 15
32 31 29 26 26 25 23 20 19 19 21 24 23 21 19 18 17 17 17 17 17 16 16 16 16 15 14 13 13 13 13 12 11 10 9 9 8 7 7 6 6 6 5 5 4 3 4 5 7 9 11 16 18 18 17 16 15 13 12 10 10 9 8 11 11 9 9 10 12 12 11 10 9 8 8 7 7 8 9 9 10 12 13 13 14
32 31 28 25 24 23 23 21 19 18 20 23 22 21 19 18 17 17 17 17 16 16 16 16 16 16 15 15 15 14 13 12 11 11 10 9 8 7 7 6 6 6 5 5 5 4 3 4 6 8 10 16 19 19 18 17 15 14 12 11 11 9 9 9 9 8 7 8 10 10 9 8 7 6 6 6 6 6 8 8 9 10 12 12 13
32 29 27 24 22 21 20 19 18 18 18 20 21 21 19 17 17 16 16 16 16 16 17 17 17 17 17 16 16 14 13 12 11 10 9 8 8 7 7 6 6 6 6 6 6 5 4 4 4 7 11 16 20 20 19 18 16 14 12 12 11 9 10 9 9 8 6 7 8 9 9 8 6 5 5 5 5 5 6 7 8 8 10 11 11
33 30 27 24 21 18 17 17 17 18 18 18 19 20 18 17 16 16 16 16 16 16 17 17 17 17 17 16 15 14 12 11 10 10 9 7 7 7 7 6 6 6 7 7 6 6 5 4 4 7 11 15 20 21 20 19 17 15 13 12 11 9 10 9 9 7 6 6 7 8 8 7 6 5 4 3 3 3 5 6 7 7 8 10 10
32 29 27 25 21 18 16 15 17 17 17 18 19 18 18 17 16 16 16 16 16 16 16 16 17 17 16 15 14 12 11 10 10 9 8 7 7 7 6 6 6 6 6 6 6 6 5 5 4 6 11 15 19 21 20 19 18 15 13 12 11 9 9 8 8 6 5 5 6 7 7 7 5 4 4 3 2 2 3 5 6 7 8 9 9
29 26 24 23 22 21 18 16 16 17 17 17 18 18 18 17 17 16 16 15 15 15 15 15 15 15 15 14 13 11 10 9 8 8 8 7 7 6 6 6 6 6 5 5 5 5 5 5 4 5 9 14 18 21 21 20 18 16 14 13 11 8 8 8 7 6 5 6 6 7 8 7 5 4 4 2 2 2 2 3 5 6 7 7 8
26 24 24 23 22 22 20 17 17 17 17 17 17 18 17 17 17 16 16 15 15 15 14 14 13 13 13 12 11 10 9 8 7 7 7 7 7 6 6 6 6 6 5 4 4 5 5 5 4 5 9 13 17 21 22 20 18 16 14 12 11 8 7 7 7 6 5 6 7 7 7 6 4 4 3 2 1 1 1 2 3 4 5 6 6
24 25 25 24 23 23 22 21 19 18 18 18 18 18 18 17 17 17 16 15 15 14 13 13 12 12 11 11 9 9 7 7 7 7 6 6 6 6 5 5 6 6 5 4 3 3 4 5 5 5 8 12 15 20 24 22 19 17 15 13 11 8 7 8 7 6 5 6 7 7 6 5 4 3 2 2 1 0 1 1 2 3 4 5 5
26 27 26 24 24 24 23 23 21 20 20 19 19 19 18 18 18 17 16 16 15 14 13 12 12 11 11 10 9 8 7 7 6 6 6 5 5 5 5 5 5 5 4 3 3 2 3 4 5 5 7 11 13 18 24 23 20 17 15 13 12 9 8 8 7 7 6 6 7 6 5 4 2 1 1 2 1 1 1 0 1 2 3 3 4
28 29 28 26 26 26 25 24 24 23 21 20 20 19 19 19 18 17 16 16 15 14 14 13 12 11 10 9 8 8 7 7 6 6 5 5 5 5 4 4 4 4 4 3 2 2 2 3 4 5 7 10 12 16 23 24 20 17 14 13 12 10 8 8 7 7 7 7 7 7 6 4 2 0 1 2 2 2 1 1 1 1 2 2 2
29 29 29 29 27 25 25 24 24 23 22 21 20 19 18 18 17 17 16 16 15 14 14 13 12 11 10 9 8 8 7 7 6 5 5 5 5 4 4 4 4 3 3 3 2 2 2 2 3 5 7 9 11 15 21 23 21 17 13 12 12 10 8 7 7 8 8 7 7 6 6 5 3 0 2 2 3 3 1 2 2 1 2 2 1
30 30 29 29 27 25 25 24 23 21 22 21 21 20 19 18 17 16 16 15 15 14 13 12 11 10 10 9 8 8 7 7 6 6 5 5 4 4 4 4 3 3 3 3 2 2 2 2 3 5 7 9 11 14 19 23 20 16 12 10 11 10 8 8 8 8 8 6 5 5 5 5 4 1 2 3 3 3 2 2 3 2 2 2 1
32 31 28 29 26 25 25 23 22 20 21 20 20 19 17 17 16 15 15 15 14 13 12 11 10 9 9 8 8 7 7 6 6 6 5 5 5 5 5 4 3 3 3 3 3 3 3 3 4 5 7 10 12 13 19 22 19 15 11 10 11 9 8 8 8 8 8 5 4 4 3 4 4 3 1 3 4 4 4 3 3 3 2 2 2
32 30 27 27 24 23 23 22 22 21 20 19 18 16 16 16 15 14 14 13 13 12 11 10 9 9 8 7 7 7 7 6 6 7 6 6 6 6 6 4 3 3 4 4 4 4 4 4 4 5 7 11 13 13 18 22 19 14 12 11 11 9 8 8 8 7 7 4 3 3 3 3 4 3 0 3 4 5 5 4 4 4 3 3 2
31 28 26 26 23 22 22 22 21 21 20 18 17 16 16 15 15 14 13 12 11 11 10 10 9 9 8 8 7 7 7 6 6 7 7 7 7 7 5 3 3 3 4 4 4 4 4 5 5 5 8 11 13 13 17 22 19 14 12 11 11 9 8 8 7 6 5 4 2 2 3 4 3 2 1 2 4 6 6 4 4 5 4 4 3
29 26 26 25 23 23 22 22 21 21 19 17 16 15 15 15 14 13 12 11 11 10 10 10 10 9 9 8 8 8 8 7 7 7 7 8 8 7 5 4 4 3 4 4 4 5 5 6 6 7 9 12 14 13 16 21 19 14 12 10 10 9 7 6 5 5 4 3 2 2 4 5 3 1 0 2 4 6 6 5 5 6 6 5 4
28 26 25 24 23 23 22 22 22 21 19 17 16 14 14 13 13 12 11 11 11 11 10 10 10 9 9 9 8 8 8 8 7 7 7 8 8 7 6 5 4 4 5 5 5 6 5 6 7 9 11 13 14 14 16 20 20 15 12 10 8 8 7 6 5 4 3 1 1 2 4 5 4 1 1 1 3 5 6 6 6 7 7 6 6
27 25 24 23 23 24 24 23 22 20 18 17 15 14 13 13 13 12 11 11 11 11 10 10 10 9 10 10 9 9 9 9 8 7 7 8 8 8 7 6 6 6 6 5 7 7 5 6 7 10 13 14 14 15 16 19 20 16 12 10 8 8 8 7 6 5 3 1 1 2 3 3 3 2 2 1 1 2 4 6 7 7 8 7 7
27 26 25 24 25 25 25 23 21 19 17 16 14 13 12 12 13 12 12 12 13 12 11 11 11 11 12 12 11 10 10 10 9 8 8 8 8 8 6 6 6 7 7 7 7 7 6 7 8 10 14 14 12 13 15 17 18 16 13 9 7 7 7 7 6 4 2 0 1 1 2 2 3 3 3 2 2 1 2 4 6 7 8 8 8
27 26 26 26 25 24 23 21 19 17 15 14 13 12 12 12 12 13 13 13 13 12 12 11 11 12 13 13 12 12 11 11 10 9 9 9 9 9 7 6 7 7 8 8 9 9 8 8 8 10 13 14 12 11 13 15 16 15 12 9 7 6 5 4 4 3 1 0 1 1 1 3 4 4 4 3 3 2 2 2 4 5 7 8 9
27 27 26 25 24 22 20 18 15 14 13 12 12 12 12 11 11 12 13 13 13 12 11 11 11 12 13 13 13 13 13 13 12 10 10 10 9 9 9 8 8 8 9 10 11 11 10 10 9 9 11 13 11 10 12 13 14 13 11 8 6 5 4 3 4 2 1 1 1 1 2 3 4 5 5 4 3 3 3 2 2 3 4 6 8
27 27 25 24 22 20 18 15 13 12 11 10 11 10 10 10 11 12 13 13 12 11 10 10 11 12 13 14 14 14 14 14 12 11 10 10 9 9 9 9 10 11 11 12 13 12 11 11 10 10 11 12 11 11 12 13 13 11 10 8 6 5 5 3 4 3 1 0 1 2 2 3 4 5 5 5 4 3 3 3 2 1 2 3 4
27 25 23 22 21 18 15 14 12 11 10 9 9 9 10 10 10 11 12 11 11 10 9 9 10 12 14 14 14 14 15 14 12 12 11 9 10 10 10 10 11 12 12 11 12 11 11 11 10 10 10 11 10 10 12 13 11 10 8 8 8 7 7 4 3 4 3 2 2 1 1 2 2 4 4 5 4 4 4 3 3 2 2 2 2
23 23 22 20 18 16 15 14 13 12 10 9 9 9 9 9 9 10 10 9 9 9 9 9 10 11 13 14 14 15 15 14 12 11 11 10 10 11 11 11 11 12 12 11 11 11 11 11 10 10 10 11 10 10 11 11 11 9 7 8 9 9 9 7 4 4 5 5 4 4 3 1 0 1 3 4 5 5 4 3 3 3 2 2 2
21 21 20 18 17 16 15 14 13 11 10 8 7 6 6 6 8 8 8 8 8 8 9 9 10 11 12 13 14 15 15 14 12 11 10 11 10 11 11 11 11 13 12 10 10 11 11 11 10 10 11 12 12 11 10 10 10 10 7 8 8 8 9 7 6 6 6 6 6 6 5 4 2 1 1 2 3 4 4 4 4 3 3 2 3
19 18 16 16 16 15 14 13 11 9 8 6 5 4 4 5 6 6 6 7 7 7 8 9 10 11 12 12 13 14 14 12 11 10 10 11 10 11 12 11 11 13 12 10 10 12 12 11 10 10 11 13 12 11 11 11 10 9 8 8 8 6 6 6 5 6 7 7 7 7 7 6 4 3 2 2 2 3 3 2 2 2 2 1 2
18 16 15 16 17 15 14 12 9 7 6 6 5 4 5 5 6 6 6 7 7 7 8 9 10 11 12 12 13 12 12 11 11 11 10 11 11 11 12 11 12 12 12 11 11 12 13 12 11 10 11 12 12 11 11 13 12 10 9 8 8 8 7 6 6 7 7 7 8 9 10 9 8 7 6 5 4 3 2 2 2 1 0 0 1
21 21 21 19 18 17 14 11 9 8 7 7 5 5 6 6 6 6 6 6 7 7 8 9 10 10 10 11 12 11 10 11 11 11 11 11 12 12 13 13 12 13 13 12 11 12 13 13 13 12 11 10 9 10 10 13 13 11 11 10 9 10 10 10 10 10 9 8 8 10 12 12 12 11 10 8 7 6 5 4 4 4 3 2 2
23 26 25 22 21 18 14 12 11 10 9 8 7 7 6 6 7 7 7 7 6 7 8 8 9 9 9 10 10 10 10 10 10 10 10 11 12 13 13 14 14 14 14 12 11 11 14 15 15 14 12 10 9 9 10 11 12 13 13 11 11 11 11 11 11 12 12 11 9 10 12 12 13 12 11 11 10 9 8 6 6 5 5 4 4
24 27 26 25 24 20 16 13 12 11 10 10 9 8 7 7 9 9 8 7 7 7 7 7 8 8 8 8 9 10 9 9 9 9 9 10 12 12 12 13 14 14 13 12 11 12 14 16 17 16 14 12 11 11 11 12 12 12 12 11 10 10 10 10 10 11 12 13 12 11 11 12 13 12 11 11 11 11 10 9 9 9 8 7 7
25 27 26 25 24 20 17 15 14 13 12 12 11 9 8 6 7 9 9 8 7 6 6 6 7 7 7 8 9 9 9 8 8 9 9 10 11 11 11 12 13 14 14 14 13 14 15 16 19 19 16 15 14 13 13 12 12 12 11 11 10 9 9 9 10 11 11 12 12 11 11 12 13 12 12 13 13 12 12 12 12 12 12 11 10
26 26 25 25 24 21 17 16 15 15 13 13 12 10 8 6 5 7 8 7 6 5 5 5 6 6 6 7 8 9 9 9 9 9 8 9 10 10 9 8 9 11 13 14 15 16 17 16 19 21 18 16 15 14 13 12 12 12 11 10 9 8 8 9 9 9 10 10 10 10 10 11 10 10 12 13 13 13 13 13 13 13 13 13 13
25 24 25 24 23 21 17 17 16 15 15 14 12 11 10 9 6 6 6 6 5 5 5 5 5 5 5 7 8 8 9 10 10 8 7 8 9 8 6 4 5 7 9 12 14 16 16 16 19 21 18 17 16 14 12 11 11 11 10 9 8 8 7 7 8 8 8 9 9 9 9 9 9 8 8 9 10 11 12 13 14 14 14 15 15
26 25 25 23 22 20 17 17 16 16 17 15 14 13 12 10 8 6 6 5 6 6 6 6 6 6 6 7 8 9 10 10 10 9 8 7 8 7 6 4 4 5 8 9 10 12 13 14 16 18 17 16 15 13 12 10 10 10 9 8 7 7 6 6 6 6 6 6 7 7 7 7 8 7 7 7 7 8 8 10 12 14 16 17 17
27 26 24 22 20 19 18 18 18 19 19 17 16 15 14 12 10 9 8 7 8 7 7 7 7 7 6 7 8 9 10 10 10 11 10 8 8 7 6 6 6 6 7 7 6 7 8 10 12 12 13 13 12 12 12 11 11 11 10 7 6 5 5 5 5 4 2 2 2 2 2 3 3 4 4 5 5 5 6 7 9 11 14 17 19
28 25 23 21 20 20 20 21 21 21 21 19 17 16 15 13 9 7 7 7 7 7 7 7 8 8 8 6 6 7 8 9 9 9 9 7 6 5 4 6 7 7 6 4 4 4 6 7 9 10 12 12 12 12 12 12 12 12 12 10 7 6 5 5 6 4 2 2 2 2 1 0 1 1 2 3 4 4 5 7 8 10 11 13 17
30 26 24 22 22 23 23 23 24 23 22 21 18 16 15 12 8 5 4 4 4 5 6 8 10 10 9 7 5 5 6 7 7 6 6 5 4 1 2 5 6 5 5 3 3 3 3 4 6 7 9 10 11 10 10 11 11 11 11 11 9 8 7 5 6 5 3 4 4 4 3 2 1 2 2 2 1 2 3 4 6 8 8 10 13
30 27 25 23 24 25 25 25 25 24 23 21 19 16 14 12 9 7 5 3 3 3 5 8 9 10 9 8 6 5 5 5 5 5 5 5 2 2 4 6 5 4 4 2 1 1 1 1 1 2 3 5 7 8 8 8 8 9 9 9 9 9 7 6 6 5 4 4 4 4 3 3 4 4 4 3 2 1 1 1 2 5 7 8 9
30 27 24 23 24 25 25 25 24 24 23 21 19 16 15 13 11 9 6 5 6 5 5 7 8 9 9 8 7 6 6 5 5 5 5 4 2 3 5 5 5 4 4 3 2 1 2 2 2 1 1 1 0 3 4 3 3 5 6 7 8 9 8 8 6 6 6 6 6 5 4 5 4 4 4 3 3 3 1 1 2 3 6 7 8
29 26 23 23 25 25 24 24 23 23 22 21 18 17 16 15 15 13 9 8 8 7 7 8 7 8 7 7 6 6 7 6 6 5 5 5 3 3 3 3 3 3 3 3 3 4 5 6 6 4 1 2 3 3 4 4 2 1 3 4 4 6 6 6 6 5 5 5 5 5 4 4 3 2 1 2 3 4 3 3 5 4 5 6 7
27 25 24 23 25 25 24 24 23 23 23 22 20 19 19 18 17 16 13 10 8 8 8 8 6 6 6 6 6 6 7 7 6 5 6 5 3 2 2 1 1 2 2 2 3 4 5 5 4 2 1 3 4 5 5 5 4 3 3 3 2 2 2 2 2 2 3 3 3 3 3 3 2 2 1 1 2 3 3 3 3 2 3 4 5
Wind_Direction
169 166 166 163 163 168 169 168 165 162 160 157 153 148 142 137 135 135 136 137 138 139 141 143 143 141 138 136 133 131 128 127 126 126 128 131 133 135 138 140 140 139 140 140 138 138 138 140 142 147 149 144 138 133 127 128 131 126 119 112 108 107 102 95 91 88 84 81 78 76 75 76 79 81 80 78 79 80 79 77 76 78 80 80 77
164 165 166 164 164 168 170 169 167 164 161 159 155 152 146 143 140 138 140 140 140 141 142 144 144 142 139 137 135 133 133 132 132 132 131 130 129 128 130 133 135 133 134 138 140 138 136 133 134 139 146 148 140 134 134 136 135 132 126 113 109 110 103 96 95 93 87 84 79 74 71 69 72 77 80 80 81 82 81 79 76 76 77 78 76
161 162 166 164 165 169 171 171 168 165 163 161 157 156 150 146 145 143 142 142 142 141 142 142 143 142 141 139 138 137 137 138 136 135 132 128 124 122 124 127 131 130 126 130 139 139 135 130 129 136 143 147 143 140 141 142 140 137 131 119 115 113 105 98 98 95 88 82 78 74 70 66 66 70 75 79 81 83 83 80 78 77 76 75 74
160 160 166 166 167 170 172 172 169 166 165 162 160 158 154 150 148 147 146 144 144 143 142 142 143 143 143 143 142 141 139 138 135 133 131 128 123 121 124 126 129 134 125 120 132 138 139 133 131 136 141 145 147 146 146 146 144 142 136 130 126 118 109 102 99 95 88 82 77 73 69 64 63 66 69 74 79 82 83 81 81 80 78 76 73
159 159 165 167 169 171 174 174 171 168 166 164 162 161 158 154 150 148 148 147 146 144 143 143 144 144 145 144 142 139 137 136 134 131 130 127 125 125 127 127 125 129 130 119 123 133 136 132 130 134 140 143 145 146 147 146 146 147 143 140 137 126 115 108 103 96 89 85 79 72 68 64 62 64 66 71 77 80 83 82 82 82 81 77 74
161 160 163 167 169 173 176 176 173 170 168 166 164 163 161 157 152 149 148 149 149 147 145 144 143 144 145 143 141 137 136 136 133 132 130 128 127 128 130 129 126 127 137 120 104 121 125 119 122 131 139 142 144 147 146 146 150 151 150 148 143 134 121 115 111 99 91 88 81 73 67 65 61 59 64 69 73 77 81 83 83 81 81 80 76
161 160 161 165 167 171 176 177 176 172 170 168 166 164 162 159 154 151 150 150 151 150 148 147 144 142 143 142 142 139 137 136 134 134 132 130 129 130 128 127 130 131 137 101 95 113 122 115 116 128 140 143 144 147 147 149 153 155 155 152 150 147 129 121 119 105 95 91 84 77 70 67 64 60 60 66 71 75 79 82 82 80 80 81 78
159 161 161 161 164 170 175 177 177 174 171 170 168 165 163 161 157 153 151 151 152 152 150 150 147 143 142 140 140 139 139 139 138 137 134 132 132 132 127 125 134 134 124 111 121 141 142 129 127 128 137 144 146 148 151 154 156 157 155 156 158 160 140 127 125 112 100 95 87 81 76 69 67 63 59 59 67 73 77 80 83 84 82 81 80
159 162 162 160 161 168 174 176 176 174 172 170 169 166 166 164 159 155 152 153 154 155 154 153 151 149 145 142 141 140 140 142 141 138 134 131 130 131 128 128 133 130 123 129 140 158 148 133 131 128 135 144 148 151 155 156 156 155 154 159 157 165 152 127 126 117 104 99 89 82 79 73 69 68 65 57 60 68 73 77 84 88 86 83 81
159 159 162 162 161 165 172 174 173 173 173 171 170 169 169 167 162 157 154 154 156 157 156 155 154 152 148 145 144 142 140 140 139 136 132 128 129 129 128 130 126 126 128 134 137 139 130 124 124 126 140 146 149 153 156 155 154 156 157 158 159 173 153 118 120 118 107 101 90 81 79 77 73 71 71 64 58 63 68 74 82 87 88 84 82
158 159 161 164 162 164 169 172 172 172 173 173 172 171 172 170 166 159 156 155 155 156 155 155 153 151 148 146 144 143 140 137 136 134 131 127 125 124 125 125 122 123 123 128 124 117 116 117 123 127 146 153 153 155 155 155 155 158 158 162 175 176 139 116 121 116 106 102 93 83 79 76 71 69 71 70 62 61 65 72 78 83 88 87 83
158 159 160 163 163 163 167 168 171 172 173 175 174 174 175 173 168 162 157 154 154 154 153 153 152 149 146 145 143 141 139 136 135 132 130 126 122 122 122 120 116 118 115 116 112 106 104 109 123 127 148 159 157 157 157 158 158 159 161 174 189 170 133 125 126 119 109 98 92 83 76 69 65 72 70 72 71 62 64 71 74 80 89 91 87
157 158 158 160 160 163 166 165 169 173 174 176 176 177 177 175 170 163 157 154 153 152 151 151 149 148 145 144 142 140 137 135 134 131 129 126 124 122 120 120 116 113 110 106 98 96 99 107 129 130 145 164 164 162 161 161 160 161 168 186 197 167 139 135 129 127 117 99 89 79 73 65 62 77 72 69 76 67 67 73 74 78 86 91 91
157 158 157 158 158 158 162 164 168 171 175 176 178 178 178 176 170 162 156 153 152 150 149 148 147 145 144 143 142 139 137 136 136 134 133 130 127 125 121 123 123 120 114 106 98 93 93 103 130 136 142 164 170 167 165 164 161 163 174 193 202 169 148 146 133 133 124 104 88 79 76 68 64 79 80 67 72 78 73 75 78 76 82 90 89
157 155 156 157 154 152 158 166 164 166 172 174 177 176 176 174 168 160 155 154 150 148 147 146 145 144 144 143 142 139 138 139 140 139 138 137 132 130 127 127 128 127 121 110 103 98 91 94 117 138 141 161 175 173 169 165 161 166 179 196 206 177 157 154 139 136 120 97 79 74 74 69 73 94 98 73 41 76 79 76 83 81 85 92 88
154 151 154 155 150 151 160 165 160 159 165 169 172 170 172 170 164 159 154 152 148 146 146 144 144 143 145 145 144 142 142 144 144 144 141 142 140 138 134 132 134 131 127 113 104 103 98 91 104 135 143 158 174 178 172 165 163 168 180 196 208 187 163 159 144 133 109 86 69 68 71 69 83 115 121 101 39 38 67 82 86 90 91 92 90
152 152 156 157 152 153 161 162 158 158 160 164 167 166 167 165 159 157 152 150 146 146 145 143 144 144 146 145 146 146 148 149 148 148 144 146 147 147 144 139 141 138 132 117 109 109 105 97 100 127 145 156 171 180 176 167 165 170 180 195 206 193 167 160 147 130 102 80 67 65 73 73 92 122 135 129 94 21 35 99 90 93 96 92 92
153 158 159 159 156 157 160 158 160 161 161 163 165 164 163 162 157 155 152 149 146 146 145 144 147 147 148 146 149 153 154 154 153 153 148 150 151 153 150 144 146 143 136 124 118 117 112 103 98 116 144 155 167 178 179 172 168 173 180 192 203 193 171 163 147 129 103 79 66 62 67 73 90 114 142 152 154 311 331 133 112 96 95 94 94
158 161 160 161 160 161 161 159 164 166 167 166 166 165 163 161 157 156 153 149 148 147 147 148 151 151 151 149 152 156 158 159 158 158 153 154 158 158 154 149 153 150 143 135 134 136 123 108 99 109 140 157 164 175 180 175 172 175 178 190 201 191 171 161 143 127 104 79 62 55 57 66 88 106 156 184 195 222 299 287 145 117 102 101 98
161 164 163 165 166 167 166 165 168 168 170 168 168 168 165 163 159 158 155 152 151 151 152 152 155 153 151 151 154 158 163 168 168 168 162 163 170 169 165 162 162 158 152 149 153 158 149 126 110 112 138 159 166 173 178 177 175 176 178 188 197 190 170 156 138 124 103 82 67 58 51 55 79 154 208 205 205 210 250 267 235 150 132 125 110
166 168 169 171 170 172 172 169 170 170 170 169 170 169 167 165 161 160 158 157 157 156 158 157 159 156 155 156 158 162 166 175 178 179 177 176 180 180 181 182 181 175 164 156 161 167 175 165 135 126 141 164 170 172 176 176 175 173 175 186 193 188 169 151 137 122 105 90 75 60 50 48 52 139 231 221 206 211 219 241 243 218 163 154 130
169 173 176 175 173 176 176 172 172 173 172 171 172 172 171 169 166 166 164 164 164 164 165 164 165 163 164 164 164 167 171 182 188 190 190 192 194 191 193 201 206 206 189 168 161 163 173 189 168 147 148 166 174 174 175 174 173 171 170 182 190 189 173 150 139 125 110 100 82 61 48 42 39 48 231 226 211 206 206 231 236 227 193 171 174
171 176 179 179 177 177 178 173 172 177 176 174 175 175 175 174 175 174 171 171 172 173 173 173 173 173 175 174 174 175 179 188 193 198 201 205 204 200 204 214 221 220 206 183 169 165 168 190 189 169 155 166 175 175 175 172 170 166 164 177 185 187 178 157 146 133 119 110 90 66 47 37 31 30 224 219 216 209 202 217 229 224 211 186 187
172 176 178 181 181 179 178 173 173 180 178 177 178 178 179 181 184 181 180 181 181 181 180 184 183 182 186 186 187 186 190 195 198 203 206 211 209 207 209 217 222 214 205 187 176 171 172 190 193 180 162 166 174 175 176 173 167 162 162 173 180 180 173 160 151 140 127 117 92 65 35 25 26 24 354 215 216 210 201 206 221 217 212 207 202
172 175 178 180 179 179 178 175 179 182 180 182 182 182 185 187 189 188 188 188 191 191 188 194 194 192 196 198 199 198 203 207 213 214 211 213 210 210 213 216 213 200 195 186 181 180 186 197 193 181 168 167 171 171 176 174 168 162 163 171 179 175 166 159 149 138 129 117 84 46 14 12 22 31 32 208 211 208 203 204 212 213 213 218 220
175 178 179 176 175 179 179 180 184 185 185 187 186 188 191 192 195 195 197 198 202 204 201 206 207 205 208 211 212 213 216 217 224 222 217 217 213 211 211 210 205 191 191 189 183 175 183 197 190 180 170 166 167 166 173 175 172 168 167 170 178 176 168 165 153 136 125 108 68 30 7 9 20 46 82 191 198 200 203 207 209 211 213 214 223
177 180 178 174 176 181 181 185 189 189 189 190 191 195 197 200 202 204 207 210 214 216 217 219 220 223 226 228 226 225 227 227 228 225 221 218 215 215 210 204 196 188 191 185 173 165 170 186 183 178 171 166 166 166 171 176 177 177 177 177 181 184 182 183 174 155 139 126 32 12 0 9 28 55 80 157 185 199 208 212 211 212 213 214 220
176 177 176 174 178 184 185 188 191 192 192 193 196 200 204 209 210 213 214 219 224 226 230 231 233 237 241 243 238 235 233 233 233 230 226 218 217 220 213 203 195 189 188 176 165 166 168 174 175 177 176 172 169 169 171 177 182 183 183 182 183 189 194 198 191 179 170 189 356 13 0 17 44 58 64 90 143 222 224 219 217 214 213 216 220
177 176 178 178 181 188 189 188 190 192 194 197 200 203 209 216 219 221 222 225 229 232 236 239 242 244 247 251 249 245 241 239 237 234 231 224 219 218 216 211 203 194 189 178 169 172 171 169 172 176 181 180 172 170 172 177 184 186 184 182 182 182 188 198 193 185 187 87 34 12 1 42 62 64 62 58 48 6 272 237 232 225 219 220 222
178 179 181 182 184 189 190 188 187 190 195 199 203 206 211 217 223 226 227 229 230 234 238 240 244 245 248 251 253 253 248 246 242 237 236 231 223 217 221 226 213 198 194 187 176 177 175 171 173 176 185 187 178 175 176 178 182 184 185 186 186 181 176 179 176 166 157 47 24 7 54 70 69 65 57 45 39 36 14 300 257 240 231 231 230
181 182 183 184 185 188 189 183 181 186 192 197 203 208 212 216 222 226 228 231 231 234 238 241 246 246 246 248 251 252 250 248 243 237 235 233 228 224 227 226 213 200 197 193 184 182 178 173 174 175 184 191 191 190 188 183 180 182 187 189 192 202 201 171 159 150 106 35 71 95 93 76 66 60 51 39 25 33 38 14 316 263 249 249 244
185 185 185 185 185 187 185 176 172 177 183 191 198 201 205 210 217 223 226 228 228 229 233 241 248 246 245 246 248 250 248 246 241 234 229 230 230 228 225 219 213 206 201 198 192 187 181 175 174 175 180 188 196 202 199 189 184 188 197 201 201 217 225 191 167 172 172 69 107 110 100 78 64 57 50 45 30 27 35 35 27 347 294 283 267
188 188 187 184 183 181 175 170 169 171 177 185 190 191 197 205 211 214 218 220 219 221 230 241 248 246 244 245 247 247 247 244 238 229 219 221 226 224 219 218 220 212 208 207 201 196 189 183 179 177 178 181 185 196 199 192 192 202 215 221 216 217 224 211 193 194 214 243 226 206 139 94 66 55 46 44 40 35 33 35 40 25 3 339 325
186 189 187 180 177 171 163 166 167 170 179 184 189 190 196 203 201 200 204 210 215 221 233 241 244 245 244 247 247 243 244 241 233 222 213 216 220 220 219 222 227 219 215 216 213 210 201 193 187 182 182 179 177 187 195 197 205 217 232 238 227 222 225 226 230 226 238 251 249 248 234 218 73 53 41 39 39 40 38 39 42 31 24 14 5
180 185 186 177 170 167 162 165 169 177 186 190 195 197 203 204 194 194 198 208 218 222 230 239 244 247 248 252 252 245 241 236 227 217 213 218 219 218 222 227 231 227 225 227 229 225 215 208 200 193 193 188 182 187 195 202 212 222 235 243 232 229 231 235 248 248 249 255 258 255 243 234 228 257 1 24 31 35 36 38 39 28 27 25 18
180 183 187 178 171 171 167 169 179 186 190 198 206 213 222 213 199 198 203 213 221 221 228 240 247 251 253 257 256 251 247 241 234 227 219 220 222 220 224 230 231 229 230 236 240 232 226 226 217 205 204 200 193 194 201 206 210 219 230 236 232 234 239 244 255 254 251 252 257 256 248 241 229 234 268 301 333 358 14 26 35 37 50 44 25
183 188 190 185 178 176 175 179 186 188 195 207 215 230 233 221 213 207 206 214 219 222 229 238 247 252 256 259 257 255 254 250 245 243 235 226 227 227 228 232 232 231 232 239 245 233 227 228 225 220 213 209 207 205 207 208 208 216 225 228 232 239 247 252 254 250 247 244 245 244 241 239 237 240 249 261 277 285 303 310 307 319 290 303 2
187 191 190 190 186 182 184 188 188 192 202 205 213 228 229 224 224 222 218 219 222 226 227 231 241 248 251 255 257 254 248 244 241 243 242 234 235 237 235 236 238 240 237 237 242 233 226 225 228 231 224 215 218 217 212 212 212 217 223 228 235 243 249 252 253 253 251 242 233 230 229 227 229 239 249 254 257 258 268 274 274 281 271 264 272
193 192 188 189 189 187 190 193 192 197 202 203 215 224 225 230 235 240 238 237 240 234 231 231 234 240 242 245 250 248 240 239 239 240 242 243 246 245 241 241 244 246 242 238 238 229 224 226 229 231 225 213 214 215 213 216 217 217 222 228 234 243 251 254 257 258 258 252 241 232 229 228 229 236 244 249 252 255 258 259 263 269 265 258 262
200 196 190 189 189 189 193 196 194 199 205 207 214 215 215 226 239 247 248 247 241 228 229 233 235 239 236 233 236 237 235 237 241 240 237 238 244 245 242 243 244 246 247 248 246 234 228 229 228 226 221 213 209 210 210 210 215 219 223 228 232 242 254 260 263 263 262 259 251 240 236 238 238 238 245 251 254 257 256 256 262 268 268 262 261
201 196 193 189 191 194 198 199 194 198 207 207 205 201 201 219 244 250 250 248 237 227 233 235 237 240 234 226 225 224 223 225 229 229 225 226 234 241 247 248 245 246 250 253 251 242 235 231 227 222 216 213 213 214 214 213 216 220 223 227 230 237 251 264 269 268 266 264 257 249 248 251 249 249 256 260 259 261 262 262 266 270 271 267 264
191 190 191 191 194 197 199 201 197 198 206 209 204 201 207 226 254 255 249 246 236 228 240 246 244 241 235 228 223 218 213 214 216 213 216 225 232 239 249 256 249 244 246 249 249 245 239 230 226 224 217 215 218 220 222 223 223 219 217 221 222 227 247 267 274 271 267 267 264 259 257 260 262 260 261 261 259 262 263 265 268 270 271 270 268
184 185 188 192 195 196 199 202 198 199 206 211 211 212 216 221 236 244 236 239 237 227 234 250 242 232 233 226 223 224 222 224 225 215 210 221 231 236 240 254 253 245 243 242 242 241 235 225 224 225 224 221 223 225 226 227 228 224 224 227 225 228 246 263 273 274 270 269 269 268 263 261 265 268 270 270 268 266 264 265 268 269 272 271 270
183 184 187 192 193 196 202 202 200 202 206 210 215 220 217 211 214 218 218 230 243 240 238 239 230 225 228 222 222 228 232 235 236 233 228 226 231 231 229 238 244 238 235 232 232 234 231 225 222 222 226 228 228 230 232 234 235 233 232 232 232 240 251 255 258 268 277 275 269 272 274 271 270 273 282 290 290 287 282 278 278 276 273 269 267
185 186 189 193 197 201 203 202 202 203 205 208 212 215 210 203 202 204 210 221 236 245 247 246 241 237 237 228 224 228 235 238 237 239 241 236 235 235 236 242 241 232 227 225 226 230 232 232 229 225 227 232 234 235 239 243 243 242 239 237 239 248 257 250 231 228 255 263 254 274 297 291 276 274 286 299 313 321 313 303 298 291 282 271 264
189 191 194 199 204 204 200 201 203 202 204 207 206 205 202 201 201 201 208 219 229 238 250 257 259 259 260 253 235 221 227 233 234 237 240 242 246 247 239 229 229 228 224 223 222 225 229 230 231 228 225 227 232 237 243 245 244 243 242 244 249 255 263 249 220 204 189 168 154 153 161 167 223 267 287 294 304 309 303 296 292 289 285 276 268
193 195 199 204 208 204 200 201 202 202 205 207 204 200 199 202 206 208 216 231 233 239 251 254 257 262 264 261 249 220 214 223 229 237 244 254 266 248 172 192 206 215 219 220 218 214 212 216 220 223 225 226 229 235 241 242 241 239 241 244 247 251 254 240 216 201 185 173 174 185 197 197 212 237 241 241 252 291 291 284 289 291 290 283 273
197 200 203 207 207 201 199 201 202 204 207 208 206 203 203 208 211 214 221 236 245 259 255 247 250 256 255 252 248 232 220 221 229 247 258 261 262 142 157 180 195 208 218 224 219 186 130 119 143 179 216 229 230 232 229 230 232 230 233 238 242 241 234 222 213 211 213 208 202 209 213 212 221 224 218 217 214 233 248 228 302 311 304 304 294
202 206 209 209 204 200 201 204 205 207 207 207 207 206 210 218 223 224 224 229 240 248 233 224 234 245 248 248 247 243 238 229 233 250 252 241 209 148 156 174 189 204 217 229 251 304 354 3 6 34 55 50 278 233 219 216 225 223 223 232 241 237 228 228 235 243 245 240 230 226 212 199 206 217 222 227 234 249 263 211 244 287 292 307 313
207 212 215 211 204 202 205 205 203 202 201 202 206 209 214 222 230 232 230 231 236 234 216 208 215 229 239 246 246 246 246 242 240 237 223 214 189 142 135 154 184 215 230 250 274 298 312 312 309 309 340 56 60 74 83 86 102 159 189 208 234 240 239 246 252 253 250 246 237 226 204 189 170 133 200 235 255 277 295 263 244 253 274 297 305
209 214 218 214 206 203 204 202 201 201 202 205 208 211 216 224 232 234 232 235 238 228 211 206 213 223 230 237 238 233 234 236 235 220 202 201 191 146 96 49 305 295 292 305 315 315 309 303 301 300 116 107 99 95 89 87 89 91 112 131 155 210 229 238 234 234 246 261 256 237 232 229 196 141 182 253 301 310 306 271 253 266 303 321 320
Height
1504 1507 1508 1509 1510 1511 1512 1513 1514 1514 1514 1515 1516 1516 1516 1516 1515 1515 1515 1515 1516 1517 1518 1519 1519 1520 1521 1522 1523 1523 1524 1525 1525 1526 1527 1528 1529 1530 1530 1531 1531 1531 1531 1531 1531 1531 1532 1532 1532 1533 1533 1534 1534 1535 1535 1536 1536 1537 1537 1537 1537 1537 1538 1538 1538 1539 1539 1538 1538 1538 1537 1537 1537 1537 1536 1536 1536 1536 1536 1536 1535 1535 1534 1534 1534
1504 1508 1509 1510 1511 1512 1513 1513 1514 1515 1515 1516 1517 1517 1517 1517 1516 1516 1516 1517 1517 1518 1518 1519 1520 1520 1521 1522 1523 1524 1524 1525 1526 1527 1528 1528 1529 1530 1531 1531 1532 1532 1532 1532 1532 1532 1532 1532 1533 1533 1534 1534 1535 1535 1536 1536 1537 1537 1538 1538 1538 1538 1539 1539 1540 1540 1540 1540 1540 1539 1539 1539 1538 1538 1538 1538 1538 1537 1537 1537 1537 1536 1536 1535 1535
1507 1510 1511 1512 1512 1513 1514 1514 1515 1516 1517 1517 1518 1518 1518 1518 1517 1517 1517 1518 1518 1519 1520 1520 1521 1521 1522 1523 1524 1524 1525 1526 1527 1527 1528 1529 1530 1531 1531 1532 1533 1533 1533 1533 1533 1532 1532 1533 1533 1533 1534 1534 1535 1536 1536 1537 1537 1538 1538 1539 1539 1539 1540 1540 1541 1541 1542 1541 1541 1541 1540 1540 1540 1540 1539 1539 1539 1539 1539 1538 1538 1538 1537 1537 1537
1510 1512 1514 1515 1515 1516 1516 1516 1517 1517 1518 1518 1519 1519 1519 1519 1519 1518 1518 1519 1519 1520 1521 1521 1522 1522 1523 1524 1525 1526 1526 1527 1528 1528 1529 1530 1531 1531 1532 1533 1533 1534 1534 1534 1534 1533 1533 1533 1533 1534 1534 1535 1535 1536 1537 1537 1538 1538 1539 1539 1539 1540 1541 1542 1542 1543 1543 1543 1542 1542 1542 1542 1541 1541 1541 1540 1540 1540 1540 1540 1539 1539 1539 1538 1538
1507 1511 1515 1516 1517 1518 1519 1519 1519 1519 1519 1520 1520 1520 1520 1520 1519 1519 1519 1520 1520 1521 1522 1523 1523 1524 1525 1525 1526 1527 1528 1528 1529 1529 1530 1531 1531 1532 1533 1534 1534 1535 1535 1535 1535 1534 1534 1534 1534 1534 1534 1535 1536 1536 1537 1538 1538 1539 1539 1540 1540 1541 1542 1543 1543 1544 1544 1544 1544 1543 1543 1543 1543 1542 1542 1542 1541 1541 1541 1541 1541 1540 1540 1540 1539
1500 1504 1508 1513 1516 1517 1519 1520 1520 1520 1521 1521 1521 1521 1521 1520 1520 1520 1521 1521 1522 1523 1523 1524 1524 1525 1526 1527 1527 1528 1529 1529 1530 1530 1531 1531 1532 1533 1534 1534 1535 1535 1536 1536 1536 1535 1535 1535 1535 1535 1535 1536 1536 1537 1538 1538 1539 1539 1540 1540 1540 1541 1542 1543 1544 1545 1545 1545 1545 1545 1544 1544 1544 1544 1544 1543 1543 1542 1542 1542 1542 1542 1541 1541 1541
1501 1502 1502 1507 1512 1515 1517 1519 1520 1521 1522 1522 1522 1522 1522 1521 1521 1521 1522 1522 1523 1523 1524 1525 1525 1526 1527 1528 1529 1529 1530 1530 1531 1531 1532 1532 1533 1534 1534 1535 1535 1536 1537 1537 1537 1537 1536 1536 1536 1536 1536 1536 1537 1538 1538 1539 1539 1540 1540 1540 1541 1542 1543 1544 1544 1545 1546 1546 1546 1546 1546 1545 1545 1545 1545 1545 1544 1544 1543 1543 1543 1543 1542 1542 1542
1504 1505 1504 1505 1508 1512 1515 1517 1519 1520 1522 1523 1523 1523 1523 1522 1522 1522 1522 1523 1523 1524 1525 1526 1526 1527 1527 1528 1529 1530 1531 1531 1532 1532 1533 1533 1534 1535 1535 1536 1536 1537 1537 1538 1538 1538 1537 1537 1538 1537 1537 1537 1537 1538 1539 1539 1540 1540 1540 1541 1541 1541 1543 1545 1545 1546 1546 1546 1547 1547 1547 1546 1546 1546 1546 1546 1546 1545 1545 1544 1544 1544 1543 1543 1543
1504 1506 1508 1507 1508 1512 1515 1517 1517 1519 1522 1523 1524 1524 1524 1523 1523 1523 1523 1524 1524 1525 1526 1526 1527 1528 1528 1529 1530 1531 1531 1532 1533 1533 1534 1534 1535 1535 1536 1537 1537 1537 1538 1538 1539 1539 1538 1538 1538 1538 1538 1538 1538 1539 1539 1540 1540 1541 1541 1541 1542 1542 1543 1546 1546 1546 1547 1547 1547 1547 1547 1547 1547 1547 1547 1547 1547 1546 1546 1545 1545 1545 1545 1544 1544
1503 1505 1508 1509 1509 1512 1516 1518 1518 1519 1521 1523 1524 1525 1524 1524 1523 1523 1523 1524 1524 1525 1526 1527 1527 1528 1529 1529 1530 1531 1532 1533 1533 1534 1534 1535 1535 1536 1537 1537 1538 1538 1538 1539 1539 1539 1539 1539 1539 1539 1539 1539 1539 1539 1540 1541 1541 1541 1542 1542 1542 1542 1544 1546 1547 1547 1547 1548 1548 1548 1548 1548 1548 1548 1548 1548 1548 1548 1547 1547 1546 1546 1546 1546 1545
1503 1505 1507 1509 1509 1510 1514 1517 1518 1520 1521 1522 1523 1524 1525 1524 1524 1524 1524 1524 1525 1525 1526 1527 1528 1528 1529 1530 1531 1531 1532 1533 1534 1535 1535 1535 1536 1537 1537 1538 1538 1539 1539 1539 1539 1539 1539 1540 1540 1540 1540 1540 1540 1540 1541 1541 1542 1542 1542 1542 1542 1543 1544 1546 1547 1547 1548 1548 1549 1549 1549 1549 1549 1549 1549 1549 1549 1549 1548 1548 1548 1547 1547 1546 1546
1504 1506 1508 1510 1511 1512 1513 1516 1518 1520 1522 1523 1523 1524 1525 1525 1525 1524 1524 1524 1525 1526 1527 1528 1528 1529 1530 1531 1531 1532 1533 1534 1535 1535 1536 1536 1536 1537 1537 1538 1539 1539 1540 1540 1540 1540 1540 1540 1541 1541 1541 1541 1541 1541 1541 1542 1542 1542 1542 1542 1542 1543 1545 1546 1547 1548 1548 1548 1549 1550 1550 1550 1550 1550 1550 1550 1550 1550 1549 1549 1549 1548 1548 1548 1547
1503 1506 1508 1510 1512 1514 1515 1516 1518 1520 1523 1524 1524 1525 1526 1526 1525 1525 1525 1525 1526 1527 1528 1529 1529 1530 1531 1531 1532 1533 1534 1535 1535 1536 1536 1537 1537 1537 1538 1538 1539 1540 1540 1540 1540 1540 1540 1540 1541 1542 1542 1542 1541 1541 1542 1542 1542 1542 1543 1542 1542 1544 1546 1546 1547 1548 1548 1549 1550 1550 1551 1551 1551 1551 1551 1551 1551 1551 1550 1550 1550 1550 1549 1549 1548
1502 1505 1507 1510 1513 1515 1517 1519 1519 1521 1523 1525 1526 1526 1527 1527 1526 1526 1525 1526 1527 1528 1529 1530 1530 1531 1531 1532 1532 1533 1534 1535 1536 1536 1537 1538 1538 1538 1538 1538 1539 1540 1540 1541 1541 1541 1541 1541 1541 1542 1542 1542 1542 1542 1542 1542 1543 1543 1543 1542 1543 1545 1546 1546 1547 1548 1549 1549 1550 1551 1551 1552 1552 1552 1552 1552 1552 1552 1552 1551 1551 1550 1550 1550 1550
1503 1506 1508 1510 1513 1516 1519 1521 1520 1521 1523 1525 1526 1526 1527 1528 1527 1526 1526 1527 1528 1529 1530 1531 1531 1532 1532 1532 1533 1533 1535 1536 1536 1537 1537 1538 1539 1539 1539 1539 1539 1540 1541 1541 1541 1541 1541 1541 1541 1542 1543 1543 1543 1543 1543 1543 1544 1543 1543 1543 1543 1545 1546 1547 1547 1548 1549 1549 1550 1551 1552 1552 1552 1552 1553 1553 1552 1552 1553 1552 1552 1551 1551 1551 1551
1505 1509 1510 1511 1514 1517 1520 1521 1520 1521 1523 1525 1526 1527 1527 1528 1527 1527 1527 1528 1529 1530 1531 1532 1532 1533 1533 1533 1533 1534 1535 1536 1537 1537 1537 1538 1539 1539 1540 1539 1540 1540 1541 1541 1541 1541 1541 1541 1541 1542 1543 1543 1543 1543 1544 1544 1544 1544 1544 1543 1544 1545 1547 1547 1548 1549 1549 1550 1551 1552 1552 1552 1553 1553 1553 1553 1553 1553 1553 1553 1553 1552 1552 1552 1552
1507 1510 1511 1513 1515 1517 1519 1520 1520 1522 1524 1526 1527 1527 1528 1528 1528 1527 1528 1528 1529 1530 1531 1532 1533 1534 1534 1534 1534 1535 1536 1537 1537 1537 1537 1538 1539 1540 1540 1540 1540 1540 1541 1541 1541 1542 1542 1542 1542 1542 1543 1543 1543 1544 1544 1545 1545 1545 1545 1544 1544 1546 1547 1548 1548 1549 1550 1550 1551 1552 1552 1553 1553 1554 1554 1554 1554 1554 1554 1554 1554 1553 1553 1553 1552
1508 1510 1511 1512 1514 1517 1518 1519 1521 1523 1524 1526 1527 1528 1528 1528 1528 1528 1528 1529 1530 1531 1532 1533 1534 1535 1535 1535 1535 1536 1537 1537 1538 1538 1538 1539 1539 1540 1540 1540 1541 1541 1541 1541 1542 1542 1542 1542 1542 1542 1543 1543 1543 1544 1544 1545 1545 1545 1545 1545 1545 1546 1547 1548 1549 1550 1550 1551 1552 1552 1553 1553 1554 1554 1554 1554 1554 1554 1554 1555 1555 1554 1554 1553 1553
1509 1510 1511 1512 1513 1516 1517 1518 1520 1522 1524 1525 1527 1528 1528 1528 1528 1528 1528 1529 1530 1531 1532 1534 1535 1535 1535 1535 1536 1537 1538 1538 1538 1539 1539 1539 1540 1540 1540 1541 1541 1541 1542 1542 1542 1542 1542 1542 1542 1543 1543 1543 1544 1544 1544 1545 1545 1545 1546 1546 1545 1547 1548 1549 1549 1550 1551 1552 1552 1553 1553 1554 1554 1554 1555 1555 1555 1555 1555 1555 1556 1555 1555 1554 1554
1509 1510 1511 1511 1512 1514 1515 1517 1518 1520 1522 1524 1526 1527 1528 1527 1527 1528 1528 1529 1530 1531 1533 1534 1535 1535 1535 1536 1537 1537 1538 1539 1539 1539 1539 1540 1540 1540 1541 1541 1541 1542 1542 1542 1542 1542 1542 1543 1543 1543 1544 1544 1544 1544 1544 1545 1546 1546 1546 1546 1546 1547 1548 1549 1550 1551 1551 1552 1553 1553 1553 1554 1554 1555 1555 1555 1555 1555 1555 1556 1556 1556 1556 1556 1555
1507 1509 1510 1511 1511 1513 1515 1516 1518 1519 1520 1522 1525 1526 1527 1527 1527 1527 1528 1529 1530 1532 1533 1534 1535 1535 1536 1536 1537 1538 1539 1539 1539 1540 1540 1540 1540 1541 1541 1541 1542 1542 1542 1543 1543 1543 1543 1543 1543 1544 1544 1544 1544 1544 1544 1545 1546 1546 1547 1547 1547 1548 1549 1550 1550 1551 1552 1552 1553 1554 1554 1554 1555 1555 1555 1555 1555 1555 1556 1556 1557 1557 1557 1557 1556
1505 1507 1509 1510 1511 1512 1514 1517 1518 1519 1520 1522 1524 1525 1527 1527 1527 1527 1528 1529 1531 1532 1533 1534 1535 1535 1536 1537 1538 1538 1539 1539 1540 1540 1540 1540 1540 1541 1541 1542 1542 1542 1543 1543 1543 1543 1543 1543 1543 1544 1544 1545 1545 1545 1545 1546 1546 1547 1547 1547 1548 1549 1550 1550 1551 1551 1552 1553 1553 1554 1554 1554 1555 1555 1555 1555 1555 1556 1556 1556 1557 1557 1557 1557 1557
1504 1505 1507 1509 1510 1512 1514 1516 1518 1520 1522 1522 1523 1524 1526 1526 1527 1527 1528 1529 1530 1532 1533 1534 1535 1536 1537 1537 1538 1538 1539 1540 1540 1540 1540 1540 1541 1541 1542 1542 1542 1542 1543 1543 1543 1543 1543 1543 1543 1544 1544 1545 1545 1545 1545 1546 1547 1547 1547 1548 1548 1549 1550 1551 1551 1551 1552 1553 1554 1554 1554 1554 1555 1555 1555 1555 1555 1556 1556 1556 1557 1557 1557 1557 1557
1503 1505 1507 1509 1511 1512 1514 1516 1517 1520 1521 1522 1523 1524 1525 1526 1527 1528 1529 1530 1530 1532 1533 1534 1535 1536 1537 1538 1538 1539 1539 1540 1540 1540 1540 1541 1541 1541 1542 1542 1542 1543 1543 1543 1543 1543 1543 1543 1543 1544 1544 1545 1545 1545 1545 1546 1547 1547 1548 1548 1549 1550 1550 1551 1551 1552 1552 1553 1554 1554 1554 1554 1555 1555 1555 1555 1555 1555 1556 1556 1556 1557 1557 1557 1558
1504 1506 1507 1509 1511 1512 1514 1515 1517 1518 1520 1521 1522 1523 1524 1526 1527 1528 1529 1530 1531 1532 1533 1534 1535 1536 1537 1538 1539 1539 1540 1540 1540 1540 1540 1541 1541 1542 1542 1542 1542 1542 1543 1543 1543 1543 1543 1543 1543 1544 1544 1545 1545 1545 1545 1547 1547 1548 1548 1549 1549 1550 1550 1551 1552 1552 1553 1553 1554 1554 1554 1555 1555 1555 1555 1555 1555 1555 1556 1556 1556 1557 1557 1557 1558
1504 1505 1506 1508 1510 1511 1513 1514 1516 1517 1519 1520 1521 1523 1524 1525 1527 1528 1529 1530 1531 1532 1533 1534 1535 1536 1537 1538 1539 1539 1540 1540 1540 1540 1541 1541 1541 1542 1542 1542 1542 1543 1543 1543 1543 1543 1543 1543 1543 1544 1545 1545 1545 1545 1546 1547 1548 1548 1549 1549 1550 1550 1551 1552 1552 1552 1553 1553 1554 1554 1555 1555 1555 1555 1555 1555 1555 1555 1555 1556 1556 1556 1556 1557 1557
1504 1505 1506 1507 1509 1511 1513 1514 1516 1517 1518 1520 1521 1523 1524 1525 1526 1528 1529 1530 1531 1532 1533 1534 1535 1536 1536 1537 1538 1539 1540 1540 1540 1540 1540 1541 1541 1542 1542 1542 1542 1543 1543 1543 1543 1543 1543 1543 1543 1544 1545 1545 1546 1546 1546 1547 1548 1549 1549 1549 1550 1551 1551 1552 1552 1553 1553 1554 1554 1554 1555 1555 1555 1555 1555 1555 1555 1555 1555 1555 1556 1556 1556 1557 1557
1503 1504 1506 1507 1508 1510 1512 1513 1516 1517 1519 1520 1521 1523 1524 1525 1526 1527 1528 1530 1531 1532 1533 1534 1535 1535 1536 1537 1538 1539 1539 1539 1539 1540 1540 1541 1541 1542 1542 1542 1542 1543 1543 1543 1543 1543 1543 1543 1543 1544 1545 1546 1546 1546 1547 1548 1548 1549 1550 1550 1550 1551 1552 1552 1553 1553 1553 1554 1554 1555 1555 1555 1555 1555 1555 1555 1555 1555 1555 1555 1555 1556 1556 1556 1557
1503 1504 1505 1506 1508 1509 1511 1513 1516 1518 1519 1520 1521 1522 1524 1525 1526 1527 1528 1529 1530 1532 1533 1533 1534 1535 1535 1536 1537 1538 1538 1539 1539 1539 1540 1541 1541 1542 1542 1542 1542 1542 1543 1543 1543 1543 1543 1544 1544 1544 1545 1546 1547 1547 1548 1548 1549 1550 1550 1550 1551 1551 1552 1552 1553 1553 1554 1554 1555 1555 1555 1555 1555 1555 1555 1555 1556 1556 1556 1556 1556 1556 1556 1556 1556
1503 1504 1505 1506 1508 1510 1512 1514 1516 1518 1519 1520 1521 1522 1524 1525 1526 1527 1528 1529 1530 1531 1532 1532 1533 1534 1535 1535 1535 1536 1537 1538 1538 1539 1540 1540 1541 1542 1542 1542 1542 1543 1543 1543 1543 1544 1544 1544 1544 1544 1545 1546 1547 1548 1548 1549 1549 1550 1550 1550 1551 1551 1552 1553 1553 1554 1554 1554 1555 1555 1555 1555 1555 1555 1555 1555 1556 1556 1556 1556 1556 1556 1556 1556 1556
1503 1504 1505 1506 1508 1511 1513 1515 1516 1518 1519 1520 1521 1522 1523 1525 1526 1527 1528 1529 1530 1530 1531 1531 1532 1533 1533 1534 1534 1535 1536 1536 1537 1539 1539 1540 1541 1541 1542 1542 1542 1543 1543 1543 1543 1543 1544 1544 1544 1544 1545 1546 1547 1548 1549 1549 1549 1549 1550 1550 1551 1552 1552 1553 1553 1554 1554 1555 1555 1555 1556 1556 1556 1556 1556 1556 1556 1556 1556 1556 1556 1556 1557 1557 1557
1504 1505 1506 1508 1509 1512 1514 1515 1516 1518 1519 1520 1521 1522 1523 1524 1525 1526 1527 1528 1529 1529 1530 1530 1531 1532 1532 1533 1534 1535 1534 1535 1536 1538 1538 1539 1540 1541 1542 1542 1542 1543 1543 1543 1543 1544 1544 1544 1544 1544 1545 1546 1547 1548 1549 1549 1549 1549 1549 1550 1551 1552 1553 1553 1554 1554 1554 1555 1555 1556 1556 1556 1556 1556 1557 1557 1557 1557 1557 1557 1556 1557 1557 1557 1557
1505 1507 1508 1510 1511 1512 1514 1515 1516 1518 1519 1520 1521 1522 1523 1524 1524 1525 1527 1527 1528 1528 1529 1529 1530 1530 1531 1531 1533 1534 1533 1534 1535 1536 1537 1539 1540 1541 1541 1542 1542 1543 1544 1544 1544 1544 1545 1545 1545 1545 1546 1546 1547 1548 1548 1549 1549 1549 1549 1550 1551 1551 1552 1553 1554 1554 1554 1555 1556 1556 1556 1556 1556 1557 1557 1557 1558 1557 1557 1557 1557 1557 1557 1557 1557
1507 1509 1510 1511 1512 1513 1515 1516 1517 1518 1519 1520 1521 1522 1522 1523 1524 1525 1526 1527 1527 1528 1528 1528 1529 1529 1529 1530 1532 1532 1532 1533 1534 1535 1536 1538 1539 1540 1541 1542 1543 1543 1544 1544 1545 1545 1545 1545 1546 1546 1546 1546 1547 1547 1548 1549 1549 1550 1550 1550 1551 1551 1552 1553 1553 1554 1554 1555 1556 1556 1556 1556 1557 1557 1557 1558 1558 1558 1557 1557 1557 1557 1557 1557 1557
1509 1511 1512 1513 1514 1515 1515 1516 1517 1518 1518 1520 1520 1521 1522 1522 1523 1524 1525 1526 1526 1527 1528 1528 1528 1528 1529 1529 1530 1531 1531 1532 1533 1534 1536 1538 1539 1540 1541 1542 1543 1543 1544 1545 1545 1545 1545 1546 1546 1546 1547 1547 1547 1548 1548 1549 1549 1550 1550 1550 1551 1551 1551 1552 1553 1554 1554 1555 1555 1556 1556 1556 1557 1557 1557 1558 1558 1558 1558 1558 1557 1557 1558 1558 1558
1511 1512 1514 1514 1514 1515 1516 1516 1517 1518 1519 1519 1520 1521 1521 1522 1523 1524 1525 1525 1526 1527 1527 1527 1528 1528 1528 1528 1529 1529 1531 1532 1533 1534 1536 1538 1539 1540 1541 1542 1543 1543 1544 1545 1545 1546 1546 1546 1547 1547 1547 1547 1548 1548 1549 1549 1549 1550 1550 1550 1551 1551 1551 1551 1552 1553 1554 1554 1555 1555 1556 1556 1556 1557 1557 1557 1558 1558 1558 1558 1558 1557 1557 1557 1557
1512 1513 1514 1514 1515 1515 1516 1517 1517 1518 1519 1520 1520 1521 1521 1521 1522 1523 1524 1525 1525 1526 1527 1527 1527 1527 1528 1528 1529 1529 1531 1532 1534 1535 1536 1538 1539 1539 1541 1542 1543 1543 1544 1545 1545 1546 1546 1546 1547 1547 1548 1548 1548 1548 1548 1549 1549 1550 1550 1550 1550 1551 1551 1551 1551 1552 1553 1553 1554 1554 1555 1555 1556 1556 1556 1557 1557 1557 1557 1558 1558 1558 1557 1557 1557
1511 1512 1513 1514 1515 1516 1516 1517 1518 1518 1519 1520 1521 1521 1521 1521 1522 1523 1524 1524 1525 1526 1527 1527 1527 1527 1528 1528 1529 1530 1530 1531 1532 1534 1536 1538 1538 1539 1540 1541 1542 1543 1544 1545 1545 1545 1545 1546 1546 1547 1547 1548 1548 1548 1548 1549 1549 1550 1550 1550 1550 1550 1550 1551 1551 1551 1552 1552 1553 1553 1553 1554 1555 1555 1556 1556 1556 1557 1557 1557 1558 1558 1558 1557 1557
1509 1511 1513 1514 1515 1516 1517 1517 1518 1518 1519 1520 1521 1521 1521 1521 1522 1522 1523 1524 1525 1525 1526 1527 1527 1527 1528 1528 1529 1529 1530 1530 1531 1533 1535 1537 1538 1538 1539 1540 1541 1542 1543 1544 1545 1545 1545 1546 1546 1546 1546 1547 1547 1548 1548 1548 1549 1549 1550 1550 1550 1550 1550 1550 1550 1551 1551 1551 1552 1552 1552 1553 1554 1554 1555 1555 1556 1556 1556 1557 1557 1557 1557 1557 1557
1509 1511 1513 1514 1515 1516 1516 1517 1518 1519 1520 1520 1520 1521 1521 1521 1522 1523 1524 1525 1525 1526 1526 1526 1527 1527 1528 1528 1529 1529 1530 1531 1532 1533 1536 1537 1537 1537 1538 1539 1540 1541 1542 1543 1544 1544 1545 1545 1545 1545 1545 1546 1547 1547 1547 1548 1548 1549 1549 1549 1550 1550 1549 1549 1550 1550 1550 1551 1551 1551 1551 1551 1553 1554 1554 1554 1555 1555 1555 1556 1556 1556 1557 1557 1557
1509 1510 1511 1512 1514 1515 1516 1517 1518 1519 1520 1520 1521 1521 1522 1522 1523 1524 1525 1526 1526 1526 1527 1527 1527 1527 1528 1528 1529 1529 1530 1531 1532 1533 1535 1536 1536 1536 1536 1537 1539 1540 1541 1542 1543 1543 1544 1544 1544 1544 1544 1545 1545 1546 1546 1546 1547 1548 1548 1549 1549 1549 1549 1549 1549 1550 1550 1550 1550 1550 1550 1550 1552 1553 1554 1554 1554 1554 1555 1555 1555 1556 1556 1556 1556
1508 1509 1510 1512 1514 1515 1516 1517 1518 1519 1520 1521 1522 1522 1523 1524 1525 1525 1526 1526 1527 1527 1527 1527 1528 1528 1528 1529 1529 1530 1530 1531 1532 1533 1533 1534 1534 1534 1535 1536 1538 1539 1540 1541 1541 1542 1542 1543 1543 1542 1543 1543 1544 1545 1545 1545 1546 1546 1547 1548 1548 1548 1548 1548 1548 1549 1549 1549 1549 1549 1549 1549 1550 1552 1552 1553 1553 1553 1554 1554 1554 1555 1555 1555 1555
1507 1508 1510 1512 1513 1514 1515 1516 1518 1519 1520 1521 1522 1522 1523 1525 1526 1527 1527 1527 1528 1528 1528 1528 1528 1529 1529 1530 1530 1530 1530 1531 1531 1532 1532 1532 1532 1533 1534 1535 1537 1538 1539 1540 1540 1541 1541 1541 1541 1541 1541 1541 1542 1543 1544 1544 1544 1545 1546 1547 1547 1548 1548 1548 1548 1548 1548 1548 1548 1548 1548 1549 1549 1550 1550 1551 1552 1552 1553 1553 1553 1554 1554 1554 1554
1506 1507 1509 1511 1512 1513 1515 1516 1517 1519 1520 1521 1522 1523 1524 1525 1526 1527 1527 1528 1528 1528 1529 1529 1529 1530 1530 1530 1530 1531 1531 1531 1531 1531 1531 1531 1532 1533 1534 1535 1536 1537 1538 1539 1540 1540 1540 1540 1540 1540 1539 1540 1541 1542 1543 1543 1544 1545 1546 1546 1546 1547 1547 1548 1547 1547 1547 1547 1547 1547 1548 1548 1548 1549 1549 1550 1551 1551 1552 1552 1552 1552 1552 1552 1552
1505 1507 1508 1510 1511 1513 1515 1516 1518 1519 1520 1521 1522 1523 1524 1525 1526 1526 1527 1528 1528 1529 1529 1529 1529 1530 1530 1530 1530 1530 1530 1530 1531 1531 1531 1531 1532 1533 1533 1534 1535 1536 1538 1538 1539 1539 1539 1539 1540 1539 1539 1540 1541 1541 1542 1543 1543 1544 1545 1545 1546 1546 1547 1547 1548 1548 1548 1548 1548 1548 1548 1548 1548 1548 1549 1550 1550 1551 1551 1551 1551 1551 1551 1550 1550
1504 1506 1508 1510 1511 1513 1515 1516 1518 1519 1520 1521 1523 1524 1525 1526 1526 1526 1527 1527 1528 1528 1529 1529 1530 1530 1530 1530 1530 1530 1530 1530 1530 1531 1531 1532 1532 1532 1533 1533 1534 1536 1537 1538 1539 1539 1539 1539 1539 1539 1539 1540 1540 1541 1541 1542 1543 1543 1544 1545 1545 1546 1547 1547 1548 1548 1548 1548 1548 1548 1548 1548 1548 1548 1549 1549 1550 1550 1550 1550 1550 1550 1549 1549 1548
1504 1506 1508 1510 1511 1513 1514 1515 1517 1519 1520 1522 1524 1525 1526 1527 1527 1528 1528 1528 1528 1528 1529 1529 1529 1530 1529 1529 1529 1529 1530 1530 1531 1531 1531 1532 1532 1532 1532 1533 1534 1536 1537 1538 1539 1539 1539 1539 1539 1539 1539 1539 1539 1540 1540 1541 1542 1542 1543 1544 1545 1545 1546 1547 1547 1548 1548 1549 1549 1549 1549 1549 1549 1549 1549 1549 1549 1549 1550 1549 1549 1549 1548 1547 1546
1504 1506 1507 1509 1510 1512 1513 1515 1517 1519 1520 1522 1524 1526 1527 1528 1528 1529 1529 1529 1529 1529 1529 1529 1529 1529 1529 1529 1529 1529 1530 1530 1531 1531 1531 1532 1532 1532 1532 1533 1534 1536 1537 1538 1539 1539 1539 1539 1539 1539 1538 1538 1538 1539 1539 1540 1541 1542 1542 1543 1544 1545 1545 1546 1547 1548 1548 1548 1548 1549 1549 1549 1549 1549 1549 1549 1549 1549 1549 1549 1548 1547 1546 1545 1545
1504 1505 1507 1509 1510 1512 1513 1516 1518 1519 1521 1522 1524 1526 1527 1528 1529 1529 1529 1529 1529 1530 1530 1530 1530 1529 1529 1529 1529 1529 1530 1530 1531 1531 1532 1532 1532 1532 1532 1533 1535 1536 1538 1538 1539 1539 1539 1539 1539 1538 1538 1538 1538 1539 1539 1540 1540 1541 1542 1543 1543 1544 1545 1546 1547 1547 1548 1548 1548 1548 1548 1549 1549 1549 1549 1549 1549 1549 1548 1548 1547 1546 1545 1544 1544
1504 1506 1507 1508 1510 1513 1515 1516 1518 1520 1522 1523 1524 1525 1527 1527 1528 1529 1529 1529 1529 1530 1530 1531 1531 1530 1530 1530 1529 1529 1529 1530 1531 1531 1532 1532 1532 1532 1531 1532 1534 1536 1537 1538 1538 1538 1538 1538 1538 1538 1538 1539 1539 1539 1540 1540 1541 1541 1542 1543 1544 1544 1545 1546 1546 1547 1547 1547 1547 1548 1548 1548 1549 1549 1549 1549 1548 1548 1548 1548 1546 1545 1544 1544 1544
1504 1505 1507 1509 1511 1512 1513 1514 1517 1519 1521 1522 1523 1523 1524 1525 1527 1528 1528 1528 1529 1530 1530 1531 1532 1531 1531 1530 1530 1529 1529 1530 1530 1531 1533 1533 1533 1532 1531 1532 1533 1534 1536 1536 1537 1537 1537 1537 1537 1538 1538 1539 1539 1540 1540 1541 1541 1542 1542 1543 1544 1545 1545 1546 1546 1547 1547 1547 1547 1548 1548 1548 1549 1549 1549 1548 1548 1548 1548 1547 1546 1545 1545 1544 1544